Oconto, WI

4:53 AM CST on December 07, 2016 (GMT -0600)
Oconto Municipal

Weather History for KOCQ - April, 2013

Change the Weather History Date:

Tuesday, April 23, 2013

  Actual Average Record
Temperature  
Mean Temperature 40 °F -  
Max Temperature 44 °F 57 °F 52 °F (2016)
Min Temperature 34 °F 35 °F 23 °F (2014)
Degree Days  
Heating Degree Days 26    
Moisture  
Dew Point 32 °F    
Average Humidity 77    
Maximum Humidity 98    
Minimum Humidity 59    
Precipitation  
Precipitation 0.07 in - - ()
Sea Level Pressure  
Sea Level Pressure 29.93 in    
Wind  
Wind Speed 6 mph (NNW)    
Max Wind Speed 14 mph    
Max Gust Speed 23 mph    
Visibility 9 miles    
Events      
Averages and records for this station are not official NWS values.
T = Trace of Precipitation, MM = Missing Value Source: NWS Daily Summary

Daily Weather History Graph

Daily Weather History Graph

Search for Another Location

Airport or City:

Trip Planner

Search our weather history database for the weather conditions in past years. The results will help you decide how hot, cold, wet, or windy it might be!

Date:

Astronomy

Apr. 23, 2013 Rise Set
Actual Time 5:53 AM CDT 7:47 PM CDT
Civil Twilight 5:21 AM CDT 8:18 PM CDT
Nautical Twilight 4:43 AM CDT 8:57 PM CDT
Astronomical Twilight 4:01 AM CDT 9:39 PM CDT
Moon 5:37 PM CDT (4/23) 4:27 AM CDT (4/23)
Length of Visible Light 14h 56m
Length of Day
13h 54m
Waxing Gibbous, 94% of the Moon is Illuminated
Apr 23
Waxing Gibbous
Apr 25
Full
May 2
Last Quarter
May 9
New
May 17
First Quarter

Hourly Weather History & Observations

Time (CDT) Temp. Windchill Dew Point Humidity Pressure Visibility Wind Dir Wind Speed Gust Speed Precip Events Conditions
12:15 AM 38.7 °F 32.9 °F 33.8 °F 83% 30.04 in 10.0 mi ENE 8.1 mph - N/A   Mostly Cloudy
12:35 AM 38.3 °F 33.9 °F 33.3 °F 82% 30.03 in 10.0 mi East 5.8 mph - N/A   Scattered Clouds
12:55 AM 38.3 °F 33.2 °F 32.9 °F 81% 30.01 in 10.0 mi East 6.9 mph - N/A   Scattered Clouds
1:15 AM 37.4 °F 34.9 °F 32.9 °F 84% 30.00 in 10.0 mi East 3.5 mph - N/A   Scattered Clouds
1:35 AM 37.6 °F 32.3 °F 32.4 °F 81% 29.99 in 10.0 mi East 6.9 mph - N/A   Mostly Cloudy
2:15 AM 37.4 °F 33.8 °F 32.2 °F 81% 29.96 in 10.0 mi East 4.6 mph - N/A   Scattered Clouds
2:35 AM 37.0 °F - 32.4 °F 83% 29.95 in 10.0 mi Calm Calm - N/A   Mostly Cloudy
2:55 AM 37.0 °F 33.3 °F 32.4 °F 83% 29.94 in 10.0 mi NNE 4.6 mph - N/A   Overcast
3:00 AM 37.4 °F 33.8 °F 32.0 °F 81% 29.94 in 10.0 mi NE 4.6 mph - N/A   Overcast
3:15 AM 36.7 °F 32.9 °F 32.4 °F 84% 29.93 in 10.0 mi NE 4.6 mph - N/A   Mostly Cloudy
3:35 AM 36.9 °F 33.1 °F 32.4 °F 84% 29.92 in 10.0 mi NE 4.6 mph - N/A   Mostly Cloudy
3:55 AM 37.6 °F - 32.9 °F 83% 29.92 in 10.0 mi Calm Calm - N/A   Overcast
4:15 AM 37.4 °F - 34.3 °F 89% 29.92 in 7.0 mi Calm Calm - N/A   Overcast
4:35 AM 36.9 °F - 34.9 °F 93% 29.91 in 7.0 mi Calm Calm - 0.01 in   Overcast
5:15 AM 36.5 °F - 35.4 °F 96% 29.89 in 5.0 mi Calm Calm - 0.01 in   Overcast
5:35 AM 36.5 °F - 35.6 °F 97% 29.88 in 5.0 mi Calm Calm - 0.02 in   Overcast
5:55 AM 36.5 °F 33.9 °F 36.0 °F 98% 29.86 in 4.0 mi ESE 3.5 mph - 0.05 in   Overcast
6:15 AM 37.0 °F 34.5 °F 36.5 °F 98% 29.84 in 3.0 mi ESE 3.5 mph - 0.01 in   Overcast
6:35 AM 37.0 °F 34.5 °F 36.5 °F 98% 29.85 in 4.0 mi SE 3.5 mph - 0.01 in   Overcast
6:55 AM 37.6 °F - 36.7 °F 97% 29.86 in 5.0 mi Calm Calm - 0.01 in   Overcast
7:15 AM 37.6 °F - 37.0 °F 98% 29.86 in 4.0 mi Calm Calm - N/A   Overcast
7:35 AM 38.5 °F - 37.8 °F 97% 29.87 in 4.0 mi Calm Calm - N/A   Overcast
7:55 AM 38.7 °F - 38.1 °F 98% 29.86 in 4.0 mi Calm Calm - N/A   Overcast
8:15 AM 40.6 °F - 39.7 °F 97% 29.84 in 5.0 mi Calm Calm - N/A   Overcast
8:35 AM 43.9 °F 40.5 °F 42.3 °F 94% 29.85 in 5.0 mi WSW 5.8 mph - N/A   Overcast
8:55 AM 44.6 °F 39.7 °F 43.0 °F 94% 29.86 in 5.0 mi West 9.2 mph - N/A   Overcast
9:15 AM 43.7 °F 36.9 °F 40.8 °F 90% 29.88 in 10.0 mi West 13.8 mph 23.0 mph N/A   Overcast
9:35 AM 42.8 °F 37.0 °F 40.1 °F 90% 29.89 in 10.0 mi West 10.4 mph - N/A   Overcast
9:55 AM 43.0 °F 36.8 °F 40.1 °F 90% 29.88 in 10.0 mi West 11.5 mph - N/A   Overcast
10:15 AM 42.1 °F 37.1 °F 39.6 °F 91% 29.88 in 10.0 mi West 8.1 mph - N/A   Overcast
10:35 AM 43.0 °F 37.7 °F 39.7 °F 88% 29.90 in 10.0 mi NW 9.2 mph - N/A   Overcast
10:55 AM 39.6 °F 32.5 °F 37.4 °F 92% 29.91 in 7.0 mi NNW 11.5 mph - N/A   Overcast
11:15 AM 39.2 °F 33.0 °F 36.5 °F 90% 29.91 in 10.0 mi NNW 9.2 mph - N/A   Overcast
11:35 AM 38.8 °F 33.2 °F 35.8 °F 89% 29.92 in 10.0 mi NW 8.1 mph 16.1 mph N/A   Overcast
11:55 AM 39.6 °F 33.0 °F 34.9 °F 83% 29.92 in 10.0 mi NNW 10.4 mph - N/A   Overcast
12:15 PM 40.1 °F 36.1 °F 34.9 °F 82% 29.93 in 10.0 mi NW 5.8 mph - N/A   Overcast
12:35 PM 39.4 °F 35.2 °F 33.8 °F 80% 29.93 in 10.0 mi NNW 5.8 mph - N/A   Overcast
12:55 PM 40.1 °F 33.6 °F 33.3 °F 77% 29.93 in 10.0 mi NNW 10.4 mph 16.1 mph N/A   Overcast
1:15 PM 40.1 °F 34.1 °F 32.9 °F 75% 29.92 in 10.0 mi NW 9.2 mph - N/A   Overcast
1:35 PM 41.2 °F 35.0 °F 32.0 °F 70% 29.93 in 10.0 mi NNW 10.4 mph - N/A   Overcast
1:55 PM 41.0 °F 35.2 °F 31.8 °F 70% 29.92 in 10.0 mi NNW 9.2 mph - N/A   Overcast
2:15 PM 41.9 °F 35.0 °F 31.5 °F 66% 29.92 in 10.0 mi North 12.7 mph 16.1 mph N/A   Overcast
2:35 PM 42.1 °F 35.2 °F 30.6 °F 64% 29.91 in 10.0 mi NNW 12.7 mph 19.6 mph N/A   Overcast
2:55 PM 42.1 °F 36.6 °F 30.4 °F 63% 29.92 in 10.0 mi NW 9.2 mph - N/A   Overcast
3:15 PM 42.1 °F 37.1 °F 30.2 °F 63% 29.94 in 10.0 mi NNW 8.1 mph - N/A   Overcast
3:35 PM 42.8 °F 37.5 °F 30.2 °F 61% 29.94 in 10.0 mi North 9.2 mph - N/A   Overcast
3:55 PM 42.3 °F 37.9 °F 30.2 °F 62% 29.94 in 10.0 mi NNW 6.9 mph - N/A   Overcast
4:15 PM 42.1 °F 36.6 °F 30.0 °F 62% 29.93 in 10.0 mi NNW 9.2 mph - N/A   Overcast
4:35 PM 42.1 °F 37.7 °F 29.8 °F 62% 29.92 in 10.0 mi North 6.9 mph - N/A   Overcast
4:55 PM 41.9 °F 36.3 °F 29.3 °F 61% 29.93 in 10.0 mi NNW 9.2 mph - N/A   Overcast
5:15 PM 41.9 °F 36.3 °F 28.6 °F 59% 29.94 in 10.0 mi NNW 9.2 mph - N/A   Overcast
5:35 PM 41.5 °F 35.9 °F 28.8 °F 60% 29.94 in 10.0 mi NNW 9.2 mph - N/A   Overcast
5:55 PM 41.0 °F 36.4 °F 28.9 °F 62% 29.95 in 10.0 mi NW 6.9 mph - N/A   Overcast
6:15 PM 41.0 °F 34.3 °F 28.4 °F 61% 29.95 in 10.0 mi NNW 11.5 mph 16.1 mph N/A   Overcast
6:35 PM 41.0 °F 36.4 °F 28.4 °F 61% 29.95 in 10.0 mi North 6.9 mph - N/A   Mostly Cloudy
6:55 PM 40.3 °F 34.4 °F 27.1 °F 59% 29.96 in 10.0 mi NNW 9.2 mph - N/A   Mostly Cloudy
7:15 PM 39.7 °F 36.5 °F 27.1 °F 61% 29.95 in 10.0 mi North 4.6 mph - N/A   Mostly Cloudy
7:35 PM 39.4 °F 35.2 °F 27.5 °F 62% 29.96 in 10.0 mi NNW 5.8 mph - N/A   Overcast
7:55 PM 39.2 °F 33.0 °F 27.1 °F 62% 29.96 in 10.0 mi North 9.2 mph - N/A   Overcast
8:15 PM 38.7 °F 32.9 °F 27.0 °F 63% 29.97 in 10.0 mi North 8.1 mph - N/A   Overcast
8:35 PM 38.5 °F 33.4 °F 27.1 °F 64% 29.98 in 10.0 mi North 6.9 mph - N/A   Overcast
8:55 PM 38.3 °F 33.2 °F 27.3 °F 65% 29.99 in 10.0 mi North 6.9 mph - N/A   Overcast
9:15 PM 38.1 °F 31.2 °F 26.6 °F 63% 29.99 in 10.0 mi North 10.4 mph - N/A   Overcast
9:35 PM 37.6 °F 31.6 °F 26.6 °F 65% 29.99 in 10.0 mi NNW 8.1 mph - N/A   Overcast
9:55 PM 37.0 °F 31.6 °F 26.6 °F 66% 30.00 in 10.0 mi North 6.9 mph - N/A   Overcast
10:15 PM 37.0 °F 32.4 °F 26.6 °F 66% 30.00 in 10.0 mi North 5.8 mph - N/A   Overcast
10:35 PM 36.5 °F 31.0 °F 26.6 °F 67% 29.99 in 10.0 mi NNW 6.9 mph - N/A   Overcast
10:55 PM 36.3 °F 31.6 °F 26.4 °F 67% 29.99 in 10.0 mi NNW 5.8 mph - N/A   Overcast
11:15 PM 35.6 °F 30.7 °F 26.2 °F 69% 29.99 in 10.0 mi NNW 5.8 mph - N/A   Scattered Clouds
11:35 PM 35.1 °F 32.2 °F 25.7 °F 69% 29.99 in 10.0 mi NNW 3.5 mph - N/A   Clear
11:55 PM 34.7 °F 31.8 °F 25.2 °F 68% 29.99 in 10.0 mi NNW 3.5 mph - N/A   Clear